Location: Cardiff
(53.7833°N, 113.6000°W)
Time: 04:41:11
(UTC+00:00)

SO-50 - Pass Details

Date: 10 December 2023
Orbit: 608 x 660 km, 64.6° (Epoch: 02 March)

Event Time Altitude Azimuth Distance (km) Brightness Sun altitude
Exits shadow 14:53:36 - 315° (NW) 2,266 ? -6.5°
Reaches altitude 10° 14:54:17 10° 319° (NW) 2,040 ? -6.4°
Maximum altitude 14:58:06 25° 15° (NNE) 1,295 ? -6.0°
Drops below altitude 10° 15:01:52 10° 71° (ENE) 2,007 ? -5.5°
Sets 15:04:28 0° 85° (E) 2,903 ? -5.2°
